EN

Hourly Weather Dzidzantun

Today, 30 October, Friday

Time Temperature Precipitation Wind Pressure Humidity
00:00 +26°C° 0.3 mm 3 mps 760 mmHg 96%
01:00 +26°C° 0.9 mm 3 mps 759 mmHg 96%
02:00 +26°C° 0.9 mm 3 mps 759 mmHg 97%
03:00 +25°C° 0.9 mm 4 mps 759 mmHg 97%
04:00 +25°C° 0.3 mm 4 mps 759 mmHg 96%
05:00 +25°C° 0.3 mm 4 mps 759 mmHg 96%
06:00 +25°C° 0.3 mm 4 mps 760 mmHg 96%
07:00 +26°C° 0.2 mm 4 mps 760 mmHg 94%
08:00 +26°C° 0.2 mm 4 mps 761 mmHg 93%
09:00 +27°C° 0.2 mm 4 mps 761 mmHg 92%
10:00 +27°C° 0.7 mm 4 mps 761 mmHg 91%
11:00 +28°C° 0.7 mm 5 mps 761 mmHg 90%
12:00 +28°C° 0.7 mm 5 mps 761 mmHg 89%
13:00 +27°C° 0.4 mm 5 mps 760 mmHg 87%
14:00 +27°C° 0.4 mm 5 mps 760 mmHg 86%
15:00 +27°C° 0.4 mm 5 mps 759 mmHg 84%
16:00 +27°C° 0 mm 4 mps 760 mmHg 85%
17:00 +26°C° 0 mm 4 mps 760 mmHg 85%
18:00 +26°C° 0 mm 4 mps 760 mmHg 86%
19:00 +26°C° 0 mm 3 mps 761 mmHg 86%
20:00 +26°C° 0 mm 3 mps 762 mmHg 87%
21:00 +26°C° 0 mm 3 mps 762 mmHg 88%
22:00 +25°C° 0 mm 2 mps 762 mmHg 89%
23:00 +25°C° 0 mm 2 mps 762 mmHg 91%

Tomorrow, 31 October, Saturday

Time Temperature Precipitation Wind Pressure Humidity
00:00 +25°C° 0 mm 2 mps 762 mmHg 92%
01:00 +25°C° 0 mm 2 mps 761 mmHg 92%
02:00 +25°C° 0 mm 2 mps 761 mmHg 93%
03:00 +25°C° 0 mm 2 mps 761 mmHg 93%
04:00 +25°C° 0.2 mm 2 mps 761 mmHg 94%
05:00 +25°C° 0.2 mm 2 mps 761 mmHg 95%
06:00 +25°C° 0.2 mm 2 mps 761 mmHg 96%
07:00 +26°C° 0.5 mm 3 mps 762 mmHg 95%
08:00 +27°C° 0.5 mm 3 mps 762 mmHg 93%
09:00 +27°C° 0.5 mm 3 mps 762 mmHg 92%
10:00 +28°C° 1.3 mm 4 mps 762 mmHg 92%
11:00 +28°C° 1.3 mm 4 mps 762 mmHg 92%
12:00 +28°C° 1.3 mm 4 mps 761 mmHg 93%
13:00 +28°C° 1.7 mm 4 mps 761 mmHg 93%
14:00 +27°C° 1.7 mm 5 mps 761 mmHg 94%
15:00 +27°C° 1.7 mm 5 mps 760 mmHg 94%
16:00 +26°C° 0.4 mm 4 mps 761 mmHg 95%
17:00 +26°C° 0.4 mm 4 mps 761 mmHg 95%
18:00 +25°C° 0.4 mm 4 mps 761 mmHg 96%
19:00 +25°C° 0 mm 4 mps 762 mmHg 95%
20:00 +25°C° 0 mm 3 mps 762 mmHg 95%
21:00 +25°C° 0 mm 3 mps 762 mmHg 94%
22:00 +25°C° 0 mm 3 mps 762 mmHg 94%
23:00 +26°C° 0 mm 3 mps 762 mmHg 93%

Day after tomorrow, 1 November, Sunday

Time Temperature Precipitation Wind Pressure Humidity
00:00 +26°C° 0 mm 3 mps 762 mmHg 92%
01:00 +26°C° 0 mm 3 mps 762 mmHg 92%
02:00 +26°C° 0 mm 3 mps 761 mmHg 92%
03:00 +26°C° 0 mm 3 mps 761 mmHg 92%
04:00 +26°C° 0 mm 3 mps 762 mmHg 91%
05:00 +26°C° 0 mm 3 mps 762 mmHg 91%
06:00 +26°C° 0 mm 3 mps 762 mmHg 90%
07:00 +26°C° 0.2 mm 3 mps 762 mmHg 89%
08:00 +27°C° 0.2 mm 4 mps 763 mmHg 87%
09:00 +27°C° 0.2 mm 4 mps 763 mmHg 86%
10:00 +28°C° 0.1 mm 4 mps 763 mmHg 82%
11:00 +29°C° 0.1 mm 5 mps 762 mmHg 78%
12:00 +29°C° 0.1 mm 5 mps 762 mmHg 74%
13:00 +28°C° 0.1 mm 5 mps 761 mmHg 76%
14:00 +28°C° 0.1 mm 5 mps 761 mmHg 79%
15:00 +27°C° 0.1 mm 5 mps 761 mmHg 81%
16:00 +27°C° 0 mm 4 mps 761 mmHg 83%
17:00 +26°C° 0 mm 4 mps 761 mmHg 84%
18:00 +26°C° 0 mm 3 mps 762 mmHg 85%
19:00 +26°C° 0 mm 3 mps 762 mmHg 86%
20:00 +26°C° 0 mm 3 mps 762 mmHg 87%
21:00 +26°C° 0 mm 3 mps 762 mmHg 88%
22:00 +26°C° 0.2 mm 3 mps 762 mmHg 89%
23:00 +26°C° 0.2 mm 3 mps 762 mmHg 91%

2 November, Monday

Time Temperature Precipitation Wind Pressure Humidity
00:00 +25°C° 0.2 mm 3 mps 762 mmHg 92%
01:00 +26°C° 0.2 mm 3 mps 761 mmHg 92%
02:00 +26°C° 0.2 mm 4 mps 761 mmHg 91%
03:00 +26°C° 0.2 mm 4 mps 761 mmHg 91%
04:00 +26°C° 0.6 mm 4 mps 761 mmHg 92%
05:00 +25°C° 0.6 mm 4 mps 761 mmHg 94%
06:00 +25°C° 0.6 mm 4 mps 761 mmHg 95%
07:00 +26°C° 1.3 mm 4 mps 762 mmHg 93%
08:00 +27°C° 1.3 mm 5 mps 762 mmHg 92%
09:00 +28°C° 1.3 mm 5 mps 762 mmHg 90%
10:00 +28°C° 1.1 mm 5 mps 762 mmHg 89%
11:00 +28°C° 1.1 mm 5 mps 761 mmHg 88%
12:00 +29°C° 1.1 mm 5 mps 761 mmHg 88%
13:00 +28°C° 1 mm 5 mps 760 mmHg 88%
14:00 +28°C° 1 mm 5 mps 760 mmHg 89%
15:00 +28°C° 1 mm 5 mps 760 mmHg 90%
16:00 +27°C° 1.7 mm 5 mps 760 mmHg 92%
17:00 +26°C° 1.7 mm 5 mps 761 mmHg 93%
18:00 +24°C° 1.7 mm 6 mps 761 mmHg 95%
19:00 +25°C° 0.7 mm 5 mps 761 mmHg 95%
20:00 +25°C° 0.7 mm 5 mps 762 mmHg 94%
21:00 +25°C° 0.7 mm 5 mps 762 mmHg 94%
22:00 +23°C° 0 mm 5 mps 762 mmHg 92%
23:00 +23°C° 0 mm 5 mps 762 mmHg 90%

3 November, Tuesday

Time Temperature Precipitation Wind Pressure Humidity
00:00 +23°C° 0 mm 5 mps 762 mmHg 89%
01:00 +23°C° 0 mm 5 mps 762 mmHg 87%
02:00 +22°C° 0 mm 4 mps 761 mmHg 86%
03:00 +22°C° 0 mm 4 mps 761 mmHg 85%
04:00 +22°C° 0 mm 4 mps 762 mmHg 85%
05:00 +22°C° 0 mm 4 mps 762 mmHg 84%
06:00 +22°C° 0 mm 4 mps 762 mmHg 83%
07:00 +25°C° 0 mm 5 mps 762 mmHg 78%
08:00 +26°C° 0 mm 5 mps 762 mmHg 74%
09:00 +28°C° 0 mm 5 mps 763 mmHg 69%
10:00 +28°C° 0 mm 5 mps 762 mmHg 68%
11:00 +28°C° 0 mm 6 mps 762 mmHg 68%
12:00 +29°C° 0 mm 6 mps 762 mmHg 67%
13:00 +28°C° 0 mm 6 mps 761 mmHg 67%
14:00 +28°C° 0 mm 6 mps 761 mmHg 68%
15:00 +28°C° 0 mm 6 mps 760 mmHg 69%
16:00 +26°C° 0 mm 5 mps 761 mmHg 73%
17:00 +25°C° 0 mm 5 mps 761 mmHg 77%
18:00 +23°C° 0 mm 4 mps 761 mmHg 82%
19:00 +23°C° 0 mm 4 mps 762 mmHg 83%
20:00 +22°C° 0 mm 4 mps 762 mmHg 85%
21:00 +22°C° 0 mm 4 mps 763 mmHg 86%
22:00 +22°C° 0 mm 3 mps 763 mmHg 87%
23:00 +22°C° 0 mm 3 mps 762 mmHg 88%

4 November, Wednesday

Time Temperature Precipitation Wind Pressure Humidity
00:00 +22°C° 0 mm 3 mps 762 mmHg 89%
01:00 +22°C° 0 mm 3 mps 762 mmHg 88%
02:00 +22°C° 0 mm 3 mps 762 mmHg 88%
03:00 +22°C° 0 mm 3 mps 761 mmHg 87%
04:00 +22°C° 0 mm 3 mps 762 mmHg 87%
05:00 +22°C° 0 mm 3 mps 762 mmHg 87%
06:00 +22°C° 0 mm 3 mps 762 mmHg 87%
07:00 +25°C° 0 mm 4 mps 763 mmHg 80%
08:00 +26°C° 0 mm 4 mps 763 mmHg 73%
09:00 +28°C° 0 mm 4 mps 763 mmHg 66%
10:00 +29°C° 0 mm 4 mps 763 mmHg 64%
11:00 +29°C° 0 mm 4 mps 763 mmHg 63%
12:00 +29°C° 0 mm 4 mps 762 mmHg 61%
13:00 +29°C° 0 mm 5 mps 762 mmHg 63%
14:00 +29°C° 0 mm 5 mps 761 mmHg 66%
15:00 +28°C° 0 mm 5 mps 761 mmHg 68%
16:00 +27°C° 0 mm 5 mps 761 mmHg 73%
17:00 +26°C° 0 mm 4 mps 761 mmHg 78%
18:00 +25°C° 0 mm 4 mps 762 mmHg 83%
19:00 +25°C° 0 mm 4 mps 762 mmHg 84%
20:00 +25°C° 0 mm 4 mps 762 mmHg 85%
21:00 +23°C° 0 mm 4 mps 763 mmHg 86%
22:00 +23°C° 0 mm 4 mps 763 mmHg 86%
23:00 +23°C° 0 mm 4 mps 762 mmHg 87%
Show more